Weather History for Hayward, WI

Change the Weather History Date:

Tuesday, October 30, 2012

  Actual Average Record
Temperature  
Mean Temperature 30 °F -  
Max Temperature 44 °F 49 °F 71 °F (2008)
Min Temperature 19 °F 34 °F 19 °F (1996)
Degree Days  
Heating Degree Days 34    
Moisture  
Dew Point 21 °F    
Average Humidity 73    
Maximum Humidity 93    
Minimum Humidity 38    
Precipitation  
Precipitation 0.00 in - - ()
Sea Level Pressure  
Sea Level Pressure 30.20 in    
Wind  
Wind Speed 3 mph (NNE)    
Max Wind Speed 12 mph    
Max Gust Speed 23 mph    
Visibility 10 miles    
Events      
Averages and records for this station are not official NWS values.
T = Trace of Precipitation, MM = Missing Value Source: NWS Daily Summary

Daily Weather History Graph

Daily Weather History Graph

Search for Another Location

Airport:

Trip Planner

Search our weather history database for the weather conditions in past years. The results will help you decide how hot, cold, wet, or windy it might be!

Date:

Astronomy

Oct. 30, 2012 Rise Set
Actual Time 7:44 AM CDT 5:53 PM CDT
Civil Twilight 7:13 AM CDT 6:25 PM CDT
Nautical Twilight 6:37 AM CDT 7:00 PM CDT
Astronomical Twilight 6:03 AM CDT 7:34 PM CDT
Moon 6:18 PM CDT (10/30) 8:35 AM CDT (10/30)
Length of Visible Light 11h 11m
Length of Day
10h 09m
Full, 99% of the Moon is Illuminated
Oct 30
Full
Nov 6
Last Quarter
Nov 13
New
Nov 20
First Quarter
Nov 28
Full

Hourly Weather History & Observations

Time (CDT) Temp. Windchill Dew Point Humidity Pressure Visibility Wind Dir Wind Speed Gust Speed Precip Events Conditions
12:53 AM 28.0 °F 24.2 °F 24.1 °F 85% 30.32 in 10.0 mi North 3.5 mph - N/A   Clear
2:53 AM 21.0 °F - 17.1 °F 85% 30.30 in 10.0 mi Calm Calm - N/A   Clear
3:53 AM 19.9 °F 14.9 °F 17.1 °F 89% 30.29 in 10.0 mi NE 3.5 mph - N/A   Clear
4:53 AM 28.0 °F 24.2 °F 26.1 °F 92% 30.28 in 10.0 mi NNE 3.5 mph - N/A   Clear
6:16 AM 19.4 °F - 15.8 °F 86% 30.23 in 10.0 mi Calm Calm - N/A   Mostly Cloudy
6:53 AM 28.0 °F - 25.0 °F 88% 30.27 in 10.0 mi Calm Calm - N/A   Overcast
7:25 AM 26.6 °F - 23.0 °F 86% 30.21 in 10.0 mi Calm Calm - N/A   Scattered Clouds
7:53 AM 21.9 °F - 19.0 °F 89% 30.27 in 6.0 mi Calm Calm - N/A   Clear
8:20 AM 24.8 °F - 21.2 °F 86% 30.21 in 7.0 mi Calm Calm - N/A   Mostly Cloudy
8:53 AM 25.0 °F - 21.0 °F 85% 30.26 in 10.0 mi Calm Calm - N/A   Scattered Clouds
9:23 AM 28.4 °F - 26.6 °F 93% 30.20 in 10.0 mi Calm Calm - N/A   Mostly Cloudy
9:53 AM 35.1 °F 32.2 °F 30.9 °F 85% 30.25 in 10.0 mi Variable 3.5 mph - N/A   Overcast
10:53 AM 37.0 °F 30.4 °F 28.0 °F 70% 30.24 in 10.0 mi NNE 9.2 mph 20.7 mph N/A   Mostly Cloudy
11:22 AM 39.2 °F 32.0 °F 26.6 °F 61% 30.18 in 10.0 mi NNE 11.5 mph 20.7 mph N/A   Scattered Clouds
11:53 AM 39.9 °F 34.5 °F 26.1 °F 58% 30.22 in 10.0 mi NNE 8.1 mph 19.6 mph N/A   Clear
12:53 PM 42.1 °F 37.1 °F 21.0 °F 43% 30.20 in 10.0 mi NNE 8.1 mph 23.0 mph N/A   Clear
1:53 PM 42.1 °F 36.1 °F 21.9 °F 45% 30.18 in 10.0 mi NNE 10.4 mph 21.9 mph N/A   Clear
2:53 PM 42.1 °F 36.1 °F 19.9 °F 41% 30.16 in 10.0 mi NNE 10.4 mph 18.4 mph N/A   Clear
3:53 PM 41.0 °F 35.2 °F 17.1 °F 38% 30.16 in 10.0 mi NE 9.2 mph 19.6 mph N/A   Clear
4:53 PM 39.0 °F 32.3 °F 19.9 °F 46% 30.14 in 10.0 mi NE 10.4 mph 17.3 mph N/A   Clear
5:53 PM 35.1 °F 28.6 °F 21.0 °F 57% 30.16 in 10.0 mi NNE 8.1 mph - N/A   Clear
6:53 PM 33.1 °F 27.7 °F 19.9 °F 59% 30.15 in 10.0 mi Variable 5.8 mph - N/A   Clear
7:53 PM 26.1 °F - 19.0 °F 75% 30.14 in 10.0 mi Calm Calm - N/A   Clear
8:53 PM 24.1 °F - 18.0 °F 77% 30.14 in 10.0 mi Calm Calm - N/A   Clear
9:53 PM 21.9 °F - 17.1 °F 82% 30.11 in 10.0 mi Calm Calm - N/A   Clear
10:53 PM 19.9 °F - 16.0 °F 85% 30.10 in 10.0 mi Calm Calm - N/A   Clear
11:53 PM 19.0 °F - 14.0 °F 81% 30.07 in 10.0 mi Calm Calm - N/A   Clear